| time (UTC) | temp F | wind direction | speed MPH | gust MPH | rain 1hr in | rain 24hr in | rain mn in | humidity % | barometer mb |
| 20260509053510 | 46 | 180 | 0.0 | 0.0 | 0.00 | 0.00 | 0.00 | 73 | 1012.7 |
| 20260509053009 | 46 | 181 | 0.0 | 0.0 | 0.00 | 0.00 | 0.00 | 73 | 1012.6 |
| 20260509052508 | 46 | 180 | 0.0 | 0.0 | 0.00 | 0.00 | 0.00 | 73 | 1012.6 |
| 20260509052008 | 46 | 180 | 0.0 | 0.0 | 0.00 | 0.00 | 0.00 | 75 | 1012.6 |
| 20260509051514 | 46 | 180 | 0.0 | 0.0 | 0.00 | 0.00 | 0.00 | 75 | 1012.6 |
| 20260509051009 | 46 | 181 | 0.0 | 0.0 | 0.00 | 0.00 | 0.00 | 75 | 1012.6 |
| 20260509050508 | 46 | 181 | 0.0 | 0.0 | 0.00 | 0.00 | 0.00 | 76 | 1012.8 |
| 20260509050007 | 46 | 181 | 0.0 | 0.0 | 0.00 | 0.00 | 0.00 | 77 | 1012.6 |
| 20260509045507 | 46 | 180 | 0.0 | 0.0 | 0.00 | 0.00 | 0.00 | 77 | 1012.7 |
| 20260509045007 | 46 | 180 | 0.0 | 0.0 | 0.00 | 0.00 | 0.00 | 76 | 1012.7 |
| 20260509044507 | 46 | 180 | 0.0 | 0.0 | 0.00 | 0.00 | 0.00 | 76 | 1012.7 |
| 20260509044006 | 46 | 181 | 0.0 | 0.0 | 0.00 | 0.00 | 0.00 | 75 | 1012.6 |
| 20260509043508 | 46 | 180 | 0.0 | 0.0 | 0.00 | 0.00 | 0.00 | 78 | 1012.7 |
| 20260509043005 | 46 | 181 | 0.0 | 0.0 | 0.00 | 0.00 | 0.00 | 78 | 1012.6 |
| 20260509042505 | 46 | 180 | 0.0 | 0.0 | 0.00 | 0.00 | 0.00 | 78 | 1012.6 |
| 20260509042005 | 46 | 180 | 0.0 | 0.0 | 0.00 | 0.00 | 0.00 | 76 | 1012.6 |
| 20260509041503 | 46 | 180 | 0.0 | 0.0 | 0.00 | 0.00 | 0.00 | 76 | 1012.5 |
| 20260509041003 | 46 | 180 | 0.0 | 0.0 | 0.00 | 0.00 | 0.00 | 76 | 1012.4 |
| 20260509040501 | 46 | 180 | 0.0 | 0.0 | 0.00 | 0.00 | 0.00 | 75 | 1012.2 |
| 20260509040100 | 46 | 180 | 0.0 | 0.0 | 0.00 | 0.00 | 0.00 | 73 | 1012.4 |
| 20260509035600 | 46 | 181 | 0.0 | 0.0 | 0.00 | 0.00 | 0.00 | 70 | 1012.4 |
| 20260509035058 | 47 | 181 | 0.0 | 0.0 | 0.00 | 0.00 | 0.00 | 69 | 1012.3 |
| 20260509034559 | 47 | 180 | 0.0 | 0.0 | 0.00 | 0.00 | 0.00 | 67 | 1012.3 |
| 20260509034057 | 47 | 180 | 0.0 | 0.0 | 0.00 | 0.00 | 0.00 | 68 | 1012.2 |
| 20260509033558 | 47 | 180 | 0.0 | 0.0 | 0.00 | 0.00 | 0.00 | 68 | 1012.2 |
| 20260509033100 | 47 | 180 | 0.0 | 0.0 | 0.00 | 0.00 | 0.00 | 68 | 1012.3 |
| 20260509032558 | 47 | 180 | 0.0 | 0.0 | 0.00 | 0.00 | 0.00 | 68 | 1012.3 |
| 20260509032057 | 48 | 180 | 0.0 | 0.0 | 0.00 | 0.00 | 0.00 | 69 | 1012.3 |
| 20260509031559 | 48 | 181 | 0.0 | 0.0 | 0.00 | 0.00 | 0.00 | 72 | 1012.2 |
| 20260509031057 | 48 | 180 | 0.0 | 0.0 | 0.00 | 0.00 | 0.00 | 72 | 1012.3 |
| 20260509030556 | 48 | 180 | 0.0 | 0.0 | 0.00 | 0.00 | 0.00 | 71 | 1012.3 |
| 20260509030055 | 47 | 181 | 0.0 | 0.0 | 0.00 | 0.00 | 0.00 | 69 | 1012.1 |
| 20260509025558 | 47 | 180 | 0.0 | 0.0 | 0.00 | 0.00 | 0.00 | 68 | 1012.1 |
| 20260509025054 | 48 | 181 | 0.0 | 0.0 | 0.00 | 0.00 | 0.00 | 68 | 1012.1 |
| 20260509024554 | 48 | 180 | 0.0 | 0.0 | 0.00 | 0.00 | 0.00 | 67 | 1012.1 |
| 20260509024054 | 48 | 180 | 0.0 | 0.0 | 0.00 | 0.00 | 0.00 | 66 | 1012.1 |
| 20260509023553 | 49 | 181 | 0.0 | 0.0 | 0.00 | 0.00 | 0.00 | 67 | 1012.0 |
| 20260509023052 | 49 | 181 | 0.0 | 0.0 | 0.00 | 0.00 | 0.00 | 68 | 1012.0 |
| 20260509022553 | 49 | 181 | 0.0 | 0.0 | 0.00 | 0.00 | 0.00 | 68 | 1012.0 |
| 20260509022051 | 49 | 181 | 0.0 | 0.0 | 0.00 | 0.00 | 0.00 | 68 | 1011.9 |
| 20260509021550 | 50 | 180 | 0.0 | 0.0 | 0.00 | 0.00 | 0.00 | 66 | 1011.9 |
| 20260509021049 | 50 | 180 | 0.0 | 0.0 | 0.00 | 0.00 | 0.00 | 66 | 1011.7 |
| 20260509020548 | 50 | 180 | 0.0 | 0.0 | 0.00 | 0.00 | 0.00 | 66 | 1011.8 |
| 20260509020048 | 50 | 180 | 0.0 | 0.0 | 0.00 | 0.00 | 0.00 | 64 | 1011.7 |
| 20260509015548 | 50 | 180 | 0.0 | 0.0 | 0.00 | 0.00 | 0.00 | 62 | 1011.6 |
| 20260509015048 | 51 | 180 | 0.0 | 0.0 | 0.00 | 0.00 | 0.00 | 60 | 1011.4 |
| 20260509014546 | 51 | 180 | 0.0 | 0.0 | 0.00 | 0.00 | 0.00 | 60 | 1011.4 |
| 20260509014045 | 51 | 180 | 0.0 | 0.0 | 0.00 | 0.00 | 0.00 | 59 | 1011.3 |
| 20260509013545 | 52 | 180 | 0.0 | 0.0 | 0.00 | 0.00 | 0.00 | 58 | 1011.3 |
| 20260509013053 | 52 | 180 | 0.0 | 0.0 | 0.00 | 0.00 | 0.00 | 56 | 1011.2 |
| 20260509012544 | 52 | 180 | 0.0 | 0.0 | 0.00 | 0.00 | 0.00 | 54 | 1011.2 |
| 20260509012044 | 53 | 180 | 0.0 | 0.0 | 0.00 | 0.00 | 0.00 | 53 | 1011.2 |
| 20260509011543 | 53 | 180 | 0.0 | 0.0 | 0.00 | 0.00 | 0.00 | 52 | 1011.1 |
| 20260509011042 | 53 | 180 | 0.0 | 0.0 | 0.00 | 0.00 | 0.00 | 50 | 1011.0 |
| 20260509010542 | 54 | 182 | 0.0 | 1.0 | 0.00 | 0.00 | 0.00 | 50 | 1010.9 |
| 20260509010041 | 54 | 182 | 0.0 | 1.0 | 0.00 | 0.00 | 0.00 | 50 | 1010.8 |
| 20260509005540 | 54 | 216 | 0.0 | 2.0 | 0.00 | 0.00 | 0.00 | 49 | 1010.7 |
| 20260509005038 | 54 | 216 | 0.0 | 4.0 | 0.00 | 0.00 | 0.00 | 49 | 1010.5 |
| 20260509004540 | 55 | 313 | 0.0 | 4.0 | 0.00 | 0.00 | 0.00 | 49 | 1010.4 |
| 20260509004038 | 55 | 1 | 0.0 | 1.0 | 0.00 | 0.00 | 0.00 | 48 | 1010.4 |
| 20260509003537 | 55 | 14 | 0.0 | 3.0 | 0.00 | 0.00 | 0.00 | 47 | 1010.3 |
| 20260509003036 | 55 | 177 | 0.0 | 3.0 | 0.00 | 0.00 | 0.00 | 49 | 1010.1 |
| 20260509002539 | 55 | 7 | 0.0 | 1.0 | 0.00 | 0.00 | 0.00 | 48 | 1010.0 |
| 20260509002035 | 55 | 26 | 0.0 | 0.0 | 0.00 | 0.00 | 0.00 | 48 | 1010.0 |
| 20260509001540 | 56 | 22 | 0.0 | 3.0 | 0.00 | 0.00 | 0.00 | 48 | 1009.9 |
| 20260509001034 | 56 | 342 | 0.0 | 4.0 | 0.00 | 0.00 | 0.00 | 47 | 1009.8 |
| 20260509000535 | 56 | 356 | 0.0 | 4.0 | 0.00 | 0.00 | 0.00 | 47 | 1009.8 |
| 20260509000032 | 56 | 345 | 0.0 | 3.0 | 0.00 | 0.00 | 0.00 | 47 | 1009.6 |
| 20260508235531 | 56 | 1 | 0.0 | 3.0 | 0.00 | 0.00 | 0.00 | 47 | 1009.4 |
| 20260508235031 | 57 | 3 | 0.0 | 4.0 | 0.00 | 0.00 | 0.00 | 46 | 1009.3 |
| 20260508234531 | 57 | 339 | 1.0 | 5.0 | 0.00 | 0.00 | 0.00 | 46 | 1009.3 |
| 20260508234033 | 57 | 356 | 1.0 | 5.0 | 0.00 | 0.00 | 0.00 | 46 | 1009.1 |
| 20260508233531 | 57 | 4 | 1.0 | 8.0 | 0.00 | 0.00 | 0.00 | 46 | 1009.0 |
| 20260508233031 | 58 | 337 | 1.0 | 8.0 | 0.00 | 0.00 | 0.00 | 45 | 1008.9 |
| 20260508232530 | 58 | 8 | 1.0 | 7.0 | 0.00 | 0.00 | 0.00 | 45 | 1008.8 |
| 20260508232030 | 58 | 273 | 1.0 | 7.0 | 0.00 | 0.00 | 0.00 | 46 | 1008.8 |
| 20260508231534 | 58 | 242 | 0.0 | 7.0 | 0.00 | 0.00 | 0.00 | 46 | 1008.8 |
| 20260508231029 | 58 | 256 | 1.0 | 7.0 | 0.00 | 0.00 | 0.00 | 45 | 1008.7 |
| 20260508230529 | 58 | 5 | 1.0 | 5.0 | 0.00 | 0.00 | 0.00 | 47 | 1008.7 |
| 20260508230028 | 59 | 349 | 0.0 | 5.0 | 0.00 | 0.00 | 0.00 | 46 | 1008.6 |
| 20260508225529 | 59 | 349 | 1.0 | 12.0 | 0.00 | 0.00 | 0.00 | 46 | 1008.6 |
| 20260508225028 | 59 | 188 | 1.0 | 12.0 | 0.00 | 0.00 | 0.00 | 44 | 1008.6 |
| 20260508224535 | 59 | 1 | 1.0 | 6.0 | 0.00 | 0.00 | 0.00 | 45 | 1008.6 |
| 20260508224031 | 59 | 211 | 2.0 | 5.0 | 0.00 | 0.00 | 0.00 | 45 | 1008.5 |
| 20260508223529 | 59 | 354 | 0.0 | 3.0 | 0.00 | 0.00 | 0.00 | 48 | 1008.4 |
| 20260508223042 | 59 | 360 | 0.0 | 6.0 | 0.00 | 0.00 | 0.00 | 48 | 1008.4 |
| 20260508222528 | 60 | 198 | 2.0 | 10.0 | 0.00 | 0.00 | 0.00 | 48 | 1008.4 |
| 20260508222027 | 59 | 356 | 1.0 | 10.0 | 0.00 | 0.00 | 0.00 | 47 | 1008.3 |
| 20260508221527 | 59 | 2 | 0.0 | 5.0 | 0.00 | 0.00 | 0.00 | 48 | 1008.3 |
| 20260508221027 | 59 | 329 | 1.0 | 6.0 | 0.00 | 0.00 | 0.00 | 49 | 1008.4 |
| 20260508220527 | 60 | 346 | 2.0 | 7.0 | 0.00 | 0.00 | 0.00 | 48 | 1008.4 |
| 20260508220030 | 60 | 186 | 2.0 | 7.0 | 0.00 | 0.00 | 0.00 | 48 | 1008.3 |
| 20260508215526 | 60 | 3 | 1.0 | 7.0 | 0.00 | 0.00 | 0.00 | 48 | 1008.3 |
| 20260508215026 | 60 | 6 | 1.0 | 8.0 | 0.00 | 0.00 | 0.00 | 48 | 1008.3 |
| 20260508214547 | 60 | 5 | 3.0 | 8.0 | 0.00 | 0.00 | 0.00 | 47 | 1008.3 |
| 20260508214026 | 60 | 5 | 2.0 | 7.0 | 0.00 | 0.00 | 0.00 | 47 | 1008.2 |
| 20260508213525 | 60 | 346 | 0.0 | 5.0 | 0.00 | 0.00 | 0.00 | 48 | 1008.3 |
| 20260508213025 | 60 | 7 | 0.0 | 6.0 | 0.00 | 0.00 | 0.00 | 47 | 1008.2 |
| 20260508212526 | 60 | 10 | 2.0 | 6.0 | 0.00 | 0.00 | 0.00 | 48 | 1008.2 |
| 20260508212025 | 60 | 354 | 1.0 | 7.0 | 0.00 | 0.00 | 0.00 | 47 | 1008.2 |
| 20260508211525 | 60 | 360 | 1.0 | 7.0 | 0.00 | 0.00 | 0.00 | 47 | 1008.2 |
| 20260508211025 | 60 | 350 | 2.0 | 6.0 | 0.00 | 0.00 | 0.00 | 47 | 1008.2 |
| 20260508210525 | 60 | 360 | 2.0 | 6.0 | 0.00 | 0.00 | 0.00 | 47 | 1008.2 |
| 20260508210026 | 60 | 358 | 0.0 | 5.0 | 0.00 | 0.00 | 0.00 | 47 | 1008.0 |
| 20260508205523 | 61 | 8 | 0.0 | 5.0 | 0.00 | 0.00 | 0.00 | 47 | 1008.0 |
| 20260508205024 | 60 | 359 | 1.0 | 8.0 | 0.00 | 0.00 | 0.00 | 48 | 1008.0 |
| 20260508204626 | 60 | 358 | 1.0 | 8.0 | 0.00 | 0.00 | 0.00 | 46 | 1008.1 |
| 20260508204023 | 61 | 7 | 2.0 | 7.0 | 0.00 | 0.00 | 0.00 | 47 | 1007.9 |
| 20260508203523 | 61 | 86 | 2.0 | 6.0 | 0.00 | 0.00 | 0.00 | 48 | 1008.0 |
| 20260508203023 | 61 | 8 | 1.0 | 8.0 | 0.00 | 0.00 | 0.00 | 48 | 1008.0 |
| 20260508202523 | 60 | 118 | 2.0 | 8.0 | 0.00 | 0.00 | 0.00 | 48 | 1008.0 |
| 20260508202022 | 60 | 204 | 1.0 | 4.0 | 0.00 | 0.00 | 0.00 | 50 | 1008.0 |
| 20260508201522 | 60 | 5 | 0.0 | 5.0 | 0.00 | 0.00 | 0.00 | 50 | 1007.9 |
| 20260508201022 | 61 | 186 | 0.0 | 6.0 | 0.00 | 0.00 | 0.00 | 49 | 1007.9 |
| 20260508200522 | 62 | 204 | 1.0 | 8.0 | 0.00 | 0.00 | 0.00 | 50 | 1007.8 |
| 20260508200023 | 61 | 190 | 1.0 | 8.0 | 0.00 | 0.00 | 0.00 | 49 | 1007.8 |
| 20260508195521 | 61 | 356 | 0.0 | 8.0 | 0.00 | 0.00 | 0.00 | 53 | 1007.9 |
| 20260508195021 | 60 | 147 | 2.0 | 8.0 | 0.00 | 0.00 | 0.00 | 51 | 1007.9 |
| 20260508194521 | 59 | 100 | 0.0 | 5.0 | 0.00 | 0.00 | 0.00 | 55 | 1007.9 |
| 20260508194023 | 59 | 232 | 1.0 | 5.0 | 0.00 | 0.00 | 0.00 | 64 | 1008.1 |
| 20260508193520 | 58 | 209 | 0.0 | 5.0 | 0.00 | 0.00 | 0.00 | 57 | 1008.2 |
| 20260508193019 | 58 | 198 | 0.0 | 4.0 | 0.00 | 0.00 | 0.00 | 57 | 1008.1 |
| 20260508192520 | 58 | 95 | 1.0 | 4.0 | 0.00 | 0.00 | 0.00 | 56 | 1008.1 |
| 20260508192020 | 58 | 221 | 0.0 | 6.0 | 0.00 | 0.00 | 0.00 | 54 | 1008.2 |
| 20260508191520 | 58 | 280 | 1.0 | 7.0 | 0.00 | 0.00 | 0.00 | 55 | 1008.1 |
| 20260508191020 | 59 | 229 | 2.0 | 7.0 | 0.00 | 0.00 | 0.00 | 54 | 1008.1 |
| 20260508190518 | 59 | 11 | 0.0 | 6.0 | 0.00 | 0.00 | 0.00 | 49 | 1008.0 |
| 20260508190036 | 60 | 195 | 2.0 | 7.0 | 0.00 | 0.00 | 0.00 | 46 | 1008.0 |
| 20260508185519 | 60 | 357 | 2.0 | 8.0 | 0.00 | 0.00 | 0.00 | 43 | 1007.5 |
| 20260508185019 | 61 | 10 | 2.0 | 9.0 | 0.00 | 0.00 | 0.00 | 40 | 1007.5 |
| 20260508184528 | 62 | 353 | 4.0 | 9.0 | 0.00 | 0.00 | 0.00 | 38 | 1007.2 |
| 20260508184020 | 62 | 19 | 2.0 | 10.0 | 0.00 | 0.00 | 0.00 | 36 | 1006.9 |
| 20260508183517 | 62 | 230 | 1.0 | 10.0 | 0.00 | 0.00 | 0.00 | 37 | 1007.0 |
| 20260508183028 | 63 | 333 | 2.0 | 8.0 | 0.00 | 0.00 | 0.00 | 38 | 1007.0 |
| 20260508182517 | 63 | 11 | 2.0 | 7.0 | 0.00 | 0.00 | 0.00 | 35 | 1007.0 |
| 20260508182016 | 63 | 119 | 1.0 | 6.0 | 0.00 | 0.00 | 0.00 | 36 | 1006.9 |
| 20260508181518 | 64 | 326 | 1.0 | 6.0 | 0.00 | 0.00 | 0.00 | 36 | 1006.9 |
| 20260508181016 | 64 | 168 | 2.0 | 8.0 | 0.00 | 0.00 | 0.00 | 34 | 1007.0 |
| 20260508180516 | 65 | 205 | 2.0 | 9.0 | 0.00 | 0.00 | 0.00 | 36 | 1007.0 |
| 20260508180015 | 65 | 10 | 2.0 | 9.0 | 0.00 | 0.00 | 0.00 | 36 | 1007.0 |
| 20260508175514 | 66 | 14 | 0.0 | 6.0 | 0.00 | 0.00 | 0.00 | 35 | 1006.9 |
| 20260508175014 | 65 | 359 | 1.0 | 6.0 | 0.00 | 0.00 | 0.00 | 36 | 1006.9 |
| 20260508174512 | 65 | 202 | 1.0 | 5.0 | 0.00 | 0.00 | 0.00 | 35 | 1007.0 |
| 20260508174012 | 65 | 17 | 0.0 | 5.0 | 0.00 | 0.00 | 0.00 | 39 | 1007.2 |
| 20260508173510 | 64 | 209 | 1.0 | 5.0 | 0.00 | 0.00 | 0.00 | 39 | 1007.2 |
| 20260508173012 | 64 | 204 | 0.0 | 5.0 | 0.00 | 0.00 | 0.00 | 40 | 1007.2 |
| 20260508172510 | 63 | 156 | 0.0 | 5.0 | 0.00 | 0.00 | 0.00 | 38 | 1007.3 |
| 20260508172010 | 63 | 19 | 1.0 | 6.0 | 0.00 | 0.00 | 0.00 | 36 | 1007.3 |
| 20260508171510 | 63 | 359 | 1.0 | 8.0 | 0.00 | 0.00 | 0.00 | 37 | 1007.3 |
| 20260508171008 | 63 | 6 | 2.0 | 8.0 | 0.00 | 0.00 | 0.00 | 37 | 1007.4 |
| 20260508170509 | 63 | 180 | 0.0 | 6.0 | 0.00 | 0.00 | 0.00 | 39 | 1007.4 |
| 20260508170010 | 63 | 211 | 0.0 | 4.0 | 0.00 | 0.00 | 0.00 | 37 | 1007.3 |
| 20260508165508 | 63 | 356 | 0.0 | 8.0 | 0.00 | 0.00 | 0.00 | 39 | 1007.3 |
| 20260508165010 | 63 | 212 | 2.0 | 9.0 | 0.00 | 0.00 | 0.00 | 38 | 1007.5 |
| 20260508164519 | 64 | 337 | 2.0 | 9.0 | 0.00 | 0.00 | 0.00 | 36 | 1007.6 |
| 20260508164009 | 64 | 172 | 1.0 | 6.0 | 0.00 | 0.00 | 0.00 | 39 | 1007.6 |
| 20260508163506 | 63 | 337 | 1.0 | 6.0 | 0.00 | 0.00 | 0.00 | 39 | 1007.6 |
| 20260508163013 | 64 | 192 | 1.0 | 5.0 | 0.00 | 0.00 | 0.00 | 37 | 1007.6 |
| 20260508162505 | 63 | 203 | 2.0 | 8.0 | 0.00 | 0.00 | 0.00 | 37 | 1007.6 |
| 20260508162003 | 63 | 358 | 2.0 | 8.0 | 0.00 | 0.00 | 0.00 | 40 | 1007.7 |
| 20260508161507 | 63 | 199 | 0.0 | 6.0 | 0.00 | 0.00 | 0.00 | 46 | 1007.6 |
| 20260508161003 | 62 | 190 | 1.0 | 5.0 | 0.00 | 0.00 | 0.00 | 40 | 1007.7 |
| 20260508160505 | 62 | 15 | 1.0 | 5.0 | 0.00 | 0.00 | 0.00 | 38 | 1007.9 |
| 20260508160001 | 62 | 254 | 0.0 | 5.0 | 0.00 | 0.00 | 0.00 | 39 | 1007.8 |
| 20260508155501 | 63 | 3 | 0.0 | 5.0 | 0.00 | 0.00 | 0.00 | 41 | 1008.0 |
| 20260508155100 | 63 | 156 | 0.0 | 5.0 | 0.00 | 0.00 | 0.00 | 43 | 1007.9 |
| 20260508154559 | 62 | 14 | 0.0 | 4.0 | 0.00 | 0.00 | 0.00 | 40 | 1007.9 |
| 20260508154057 | 61 | 349 | 0.0 | 5.0 | 0.00 | 0.00 | 0.00 | 43 | 1008.0 |
| 20260508153558 | 60 | 171 | 0.0 | 5.0 | 0.00 | 0.00 | 0.00 | 42 | 1008.2 |
| 20260508153059 | 60 | 360 | 1.0 | 6.0 | 0.00 | 0.00 | 0.00 | 40 | 1008.2 |
| 20260508152557 | 61 | 335 | 1.0 | 8.0 | 0.00 | 0.00 | 0.00 | 42 | 1008.3 |
| 20260508152055 | 60 | 193 | 1.0 | 8.0 | 0.00 | 0.00 | 0.00 | 43 | 1008.4 |
| 20260508151554 | 60 | 360 | 1.0 | 7.0 | 0.00 | 0.00 | 0.00 | 40 | 1008.4 |
| 20260508151055 | 59 | 162 | 2.0 | 8.0 | 0.00 | 0.00 | 0.00 | 41 | 1008.4 |
| 20260508150553 | 59 | 350 | 1.0 | 8.0 | 0.00 | 0.00 | 0.00 | 42 | 1008.4 |
| 20260508150052 | 59 | 330 | 1.0 | 7.0 | 0.00 | 0.00 | 0.00 | 42 | 1008.5 |
| 20260508145551 | 59 | 351 | 2.0 | 7.0 | 0.00 | 0.00 | 0.00 | 42 | 1008.6 |
| 20260508145051 | 59 | 4 | 2.0 | 7.0 | 0.00 | 0.00 | 0.00 | 42 | 1008.6 |
| 20260508144553 | 58 | 351 | 1.0 | 8.0 | 0.00 | 0.00 | 0.00 | 42 | 1008.6 |
| 20260508144049 | 58 | 218 | 1.0 | 8.0 | 0.00 | 0.00 | 0.00 | 41 | 1008.6 |
| 20260508143549 | 58 | 214 | 1.0 | 7.0 | 0.00 | 0.00 | 0.00 | 43 | 1008.6 |
| 20260508143054 | 58 | 159 | 1.0 | 7.0 | 0.00 | 0.00 | 0.00 | 40 | 1008.7 |
| 20260508142547 | 58 | 356 | 2.0 | 9.0 | 0.00 | 0.00 | 0.00 | 42 | 1008.7 |
| 20260508142047 | 58 | 344 | 2.0 | 9.0 | 0.00 | 0.00 | 0.00 | 42 | 1008.7 |
| 20260508141559 | 58 | 187 | 0.0 | 6.0 | 0.00 | 0.00 | 0.00 | 42 | 1008.7 |
| 20260508141044 | 57 | 332 | 2.0 | 6.0 | 0.00 | 0.00 | 0.00 | 42 | 1008.7 |
| 20260508140548 | 57 | 187 | 1.0 | 6.0 | 0.00 | 0.00 | 0.00 | 45 | 1008.7 |
| 20260508140044 | 57 | 184 | 1.0 | 6.0 | 0.00 | 0.00 | 0.00 | 44 | 1008.7 |
| 20260508135542 | 57 | 14 | 1.0 | 6.0 | 0.00 | 0.00 | 0.00 | 44 | 1008.7 |
| 20260508135040 | 56 | 238 | 0.0 | 6.0 | 0.00 | 0.00 | 0.00 | 46 | 1008.9 |
| 20260508134541 | 56 | 175 | 0.0 | 7.0 | 0.00 | 0.00 | 0.00 | 45 | 1008.9 |
| 20260508134039 | 56 | 344 | 3.0 | 7.0 | 0.00 | 0.00 | 0.00 | 42 | 1008.9 |
| 20260508133537 | 55 | 10 | 2.0 | 8.0 | 0.00 | 0.00 | 0.00 | 43 | 1008.9 |
| 20260508133038 | 55 | 8 | 3.0 | 8.0 | 0.00 | 0.00 | 0.00 | 43 | 1009.0 |
| 20260508132535 | 55 | 5 | 3.0 | 7.0 | 0.00 | 0.00 | 0.00 | 44 | 1009.1 |
| 20260508132034 | 55 | 351 | 0.0 | 4.0 | 0.00 | 0.00 | 0.00 | 47 | 1009.1 |
| 20260508131533 | 54 | 228 | 1.0 | 3.0 | 0.00 | 0.00 | 0.00 | 47 | 1009.1 |
| 20260508131032 | 53 | 8 | 0.0 | 3.0 | 0.00 | 0.00 | 0.00 | 49 | 1009.1 |
| 20260508130531 | 53 | 188 | 0.0 | 7.0 | 0.00 | 0.00 | 0.00 | 49 | 1009.2 |
| 20260508130037 | 53 | 8 | 1.0 | 7.0 | 0.00 | 0.00 | 0.00 | 48 | 1009.2 |
| 20260508125531 | 52 | 15 | 0.0 | 5.0 | 0.00 | 0.00 | 0.00 | 49 | 1009.2 |
| 20260508125031 | 52 | 356 | 1.0 | 6.0 | 0.00 | 0.00 | 0.00 | 49 | 1009.2 |
| 20260508124535 | 52 | 213 | 1.0 | 6.0 | 0.00 | 0.00 | 0.00 | 49 | 1009.2 |
| 20260508124031 | 52 | 318 | 1.0 | 5.0 | 0.00 | 0.00 | 0.00 | 50 | 1009.2 |
| 20260508123530 | 51 | 360 | 2.0 | 5.0 | 0.00 | 0.00 | 0.00 | 50 | 1009.3 |
| 20260508123030 | 51 | 7 | 0.0 | 4.0 | 0.00 | 0.00 | 0.00 | 53 | 1009.3 |
| 20260508122529 | 51 | 221 | 0.0 | 7.0 | 0.00 | 0.00 | 0.00 | 54 | 1009.4 |
| 20260508122029 | 50 | 162 | 1.0 | 7.0 | 0.00 | 0.00 | 0.00 | 53 | 1009.3 |
| 20260508121529 | 50 | 318 | 1.0 | 4.0 | 0.00 | 0.00 | 0.00 | 54 | 1009.3 |
| 20260508121028 | 49 | 358 | 0.0 | 3.0 | 0.00 | 0.00 | 0.00 | 57 | 1009.3 |
| 20260508120528 | 49 | 355 | 0.0 | 4.0 | 0.00 | 0.00 | 0.00 | 56 | 1009.3 |
| 20260508120028 | 49 | 38 | 0.0 | 5.0 | 0.00 | 0.00 | 0.00 | 56 | 1009.3 |
| 20260508115528 | 49 | 320 | 0.0 | 5.0 | 0.00 | 0.02 | 0.00 | 56 | 1009.3 |
| 20260508115027 | 49 | 1 | 0.0 | 4.0 | 0.00 | 0.02 | 0.00 | 55 | 1009.2 |
| 20260508114526 | 49 | 359 | 1.0 | 4.0 | 0.00 | 0.02 | 0.00 | 54 | 1009.2 |
| 20260508114026 | 49 | 179 | 0.0 | 3.0 | 0.00 | 0.02 | 0.00 | 57 | 1009.1 |
| 20260508113529 | 48 | 143 | 0.0 | 0.0 | 0.00 | 0.02 | 0.00 | 57 | 1009.1 |
| 20260508113025 | 48 | 188 | 0.0 | 2.0 | 0.00 | 0.02 | 0.00 | 59 | 1009.1 |
| 20260508112527 | 48 | 188 | 0.0 | 2.0 | 0.00 | 0.02 | 0.00 | 57 | 1009.0 |
| 20260508112025 | 48 | 213 | 0.0 | 2.0 | 0.00 | 0.02 | 0.00 | 59 | 1009.0 |
| 20260508111525 | 48 | 150 | 0.0 | 1.0 | 0.00 | 0.02 | 0.00 | 60 | 1009.1 |
| 20260508111028 | 48 | 141 | 0.0 | 1.0 | 0.00 | 0.02 | 0.00 | 59 | 1009.1 |
| 20260508110525 | 48 | 171 | 0.0 | 1.0 | 0.00 | 0.02 | 0.00 | 59 | 1009.0 |
| 20260508110023 | 48 | 171 | 0.0 | 1.0 | 0.00 | 0.02 | 0.00 | 60 | 1009.0 |
| 20260508105523 | 48 | 164 | 0.0 | 1.0 | 0.00 | 0.04 | 0.00 | 61 | 1008.9 |
| 20260508105023 | 48 | 164 | 0.0 | 1.0 | 0.00 | 0.04 | 0.00 | 60 | 1008.9 |
| 20260508104521 | 48 | 164 | 0.0 | 1.0 | 0.00 | 0.04 | 0.00 | 60 | 1008.8 |
| 20260508104024 | 47 | 162 | 0.0 | 0.0 | 0.00 | 0.04 | 0.00 | 57 | 1008.7 |
| 20260508103521 | 47 | 162 | 0.0 | 0.0 | 0.00 | 0.04 | 0.00 | 57 | 1008.7 |
| 20260508103022 | 47 | 162 | 0.0 | 0.0 | 0.00 | 0.04 | 0.00 | 57 | 1008.6 |
| 20260508102522 | 47 | 162 | 0.0 | 0.0 | 0.00 | 0.04 | 0.00 | 58 | 1008.6 |
| 20260508102020 | 47 | 162 | 0.0 | 0.0 | 0.00 | 0.04 | 0.00 | 58 | 1008.6 |
| 20260508101520 | 47 | 162 | 0.0 | 0.0 | 0.00 | 0.04 | 0.00 | 57 | 1008.5 |
| 20260508101019 | 47 | 162 | 0.0 | 0.0 | 0.00 | 0.04 | 0.00 | 59 | 1008.4 |
| 20260508100518 | 47 | 162 | 0.0 | 0.0 | 0.00 | 0.04 | 0.00 | 58 | 1008.3 |
| 20260508100018 | 47 | 162 | 0.0 | 0.0 | 0.00 | 0.07 | 0.00 | 58 | 1008.3 |
| 20260508095518 | 47 | 162 | 0.0 | 0.0 | 0.00 | 0.07 | 0.00 | 58 | 1008.3 |
| 20260508095020 | 47 | 162 | 0.0 | 1.0 | 0.00 | 0.07 | 0.00 | 56 | 1008.2 |
| 20260508094517 | 47 | 162 | 0.0 | 1.0 | 0.00 | 0.07 | 0.00 | 56 | 1008.2 |
| 20260508094014 | 47 | 342 | 0.0 | 0.0 | 0.00 | 0.07 | 0.00 | 58 | 1008.2 |
| 20260508093514 | 47 | 342 | 0.0 | 0.0 | 0.00 | 0.07 | 0.00 | 58 | 1008.1 |
| 20260508093019 | 47 | 342 | 0.0 | 1.0 | 0.00 | 0.07 | 0.00 | 57 | 1008.1 |
| 20260508092514 | 47 | 342 | 0.0 | 1.0 | 0.00 | 0.07 | 0.00 | 58 | 1008.1 |
| 20260508092017 | 46 | 342 | 0.0 | 1.0 | 0.00 | 0.07 | 0.00 | 57 | 1008.0 |
| 20260508091515 | 46 | 342 | 0.0 | 0.0 | 0.00 | 0.07 | 0.00 | 56 | 1007.9 |
| 20260508091013 | 46 | 342 | 0.0 | 0.0 | 0.00 | 0.07 | 0.00 | 57 | 1007.9 |
| 20260508090513 | 46 | 342 | 0.0 | 0.0 | 0.00 | 0.07 | 0.00 | 56 | 1007.8 |
| 20260508090012 | 46 | 342 | 0.0 | 0.0 | 0.00 | 0.11 | 0.00 | 56 | 1007.8 |
| 20260508085514 | 46 | 342 | 0.0 | 0.0 | 0.00 | 0.11 | 0.00 | 56 | 1007.8 |
| 20260508085011 | 46 | 342 | 0.0 | 1.0 | 0.00 | 0.11 | 0.00 | 56 | 1007.8 |
| 20260508084511 | 46 | 342 | 0.0 | 2.0 | 0.00 | 0.11 | 0.00 | 56 | 1007.8 |
| 20260508084011 | 46 | 341 | 0.0 | 2.0 | 0.00 | 0.11 | 0.00 | 56 | 1007.9 |
| 20260508083510 | 46 | 15 | 0.0 | 1.0 | 0.00 | 0.11 | 0.00 | 56 | 1007.9 |
| 20260508083010 | 46 | 5 | 0.0 | 1.0 | 0.00 | 0.11 | 0.00 | 56 | 1007.9 |
| 20260508082515 | 46 | 17 | 0.0 | 1.0 | 0.00 | 0.11 | 0.00 | 56 | 1007.9 |
| 20260508082013 | 46 | 24 | 0.0 | 2.0 | 0.00 | 0.11 | 0.00 | 56 | 1007.8 |
| 20260508081511 | 46 | 15 | 0.0 | 2.0 | 0.00 | 0.11 | 0.00 | 56 | 1007.7 |
| 20260508081010 | 46 | 355 | 0.0 | 2.0 | 0.00 | 0.11 | 0.00 | 56 | 1007.6 |
| 20260508080507 | 46 | 355 | 0.0 | 2.0 | 0.00 | 0.11 | 0.00 | 56 | 1007.5 |
| 20260508080006 | 45 | 8 | 0.0 | 0.0 | 0.00 | 0.28 | 0.00 | 57 | 1007.3 |
| 20260508075505 | 46 | 8 | 0.0 | 0.0 | 0.00 | 0.28 | 0.00 | 56 | 1007.2 |
| 20260508075003 | 46 | 8 | 0.0 | 0.0 | 0.00 | 0.28 | 0.00 | 57 | 1007.2 |
| 20260508074503 | 46 | 8 | 0.0 | 0.0 | 0.00 | 0.28 | 0.00 | 55 | 1007.1 |
| 20260508074002 | 46 | 8 | 0.0 | 1.0 | 0.00 | 0.28 | 0.00 | 55 | 1007.1 |
| 20260508073502 | 46 | 8 | 0.0 | 1.0 | 0.00 | 0.28 | 0.00 | 55 | 1007.1 |
| 20260508073102 | 46 | 8 | 0.0 | 1.0 | 0.00 | 0.28 | 0.00 | 54 | 1006.9 |
| 20260508072600 | 46 | 24 | 0.0 | 1.0 | 0.00 | 0.28 | 0.00 | 54 | 1006.8 |
| 20260508072059 | 47 | 24 | 0.0 | 0.0 | 0.00 | 0.28 | 0.00 | 54 | 1006.8 |
| 20260508071558 | 47 | 24 | 0.0 | 0.0 | 0.00 | 0.28 | 0.00 | 53 | 1006.7 |
| 20260508071057 | 47 | 24 | 0.0 | 0.0 | 0.00 | 0.28 | 0.00 | 53 | 1006.8 |
| 20260508070600 | 47 | 24 | 0.0 | 0.0 | 0.00 | 0.28 | 0.00 | 54 | 1006.7 |
| 20260508070055 | 48 | 24 | 0.0 | 0.0 | 0.00 | 0.28 | 0.00 | 52 | 1006.6 |
| 20260508065555 | 48 | 24 | 0.0 | 0.0 | 0.00 | 0.28 | 0.00 | 52 | 1006.6 |
| 20260508065052 | 48 | 23 | 0.0 | 1.0 | 0.00 | 0.28 | 0.00 | 52 | 1006.6 |
| 20260508064552 | 48 | 23 | 0.0 | 1.0 | 0.00 | 0.28 | 0.00 | 51 | 1006.5 |
| 20260508064051 | 48 | 358 | 0.0 | 1.0 | 0.00 | 0.28 | 0.00 | 51 | 1006.5 |
| 20260508063551 | 48 | 351 | 0.0 | 0.0 | 0.00 | 0.28 | 0.00 | 51 | 1006.5 |
| 20260508063101 | 49 | 351 | 0.0 | 1.0 | 0.00 | 0.28 | 0.00 | 51 | 1006.4 |
| 20260508062553 | 49 | 351 | 0.0 | 1.0 | 0.00 | 0.28 | 0.00 | 50 | 1006.3 |
| 20260508062049 | 49 | 351 | 0.0 | 1.0 | 0.00 | 0.28 | 0.00 | 49 | 1006.2 |
| 20260508061549 | 49 | 351 | 0.0 | 2.0 | 0.00 | 0.28 | 0.00 | 49 | 1006.2 |
| 20260508061048 | 50 | 351 | 0.0 | 2.0 | 0.00 | 0.28 | 0.00 | 49 | 1006.2 |
| 20260508060546 | 50 | 6 | 0.0 | 1.0 | 0.00 | 0.28 | 0.00 | 48 | 1006.2 |
| 20260508060047 | 50 | 8 | 0.0 | 1.0 | 0.00 | 0.28 | 0.00 | 48 | 1006.3 |
| 20260508055544 | 50 | 5 | 0.0 | 2.0 | 0.00 | 0.28 | 0.00 | 49 | 1006.3 |
| 20260508055043 | 50 | 5 | 0.0 | 4.0 | 0.00 | 0.28 | 0.00 | 48 | 1006.3 |
| 20260508054543 | 50 | 6 | 1.0 | 4.0 | 0.00 | 0.28 | 0.00 | 47 | 1006.4 |
| 20260508054042 | 51 | 359 | 0.0 | 1.0 | 0.00 | 0.28 | 0.00 | 48 | 1006.3 |
| 20260508053540 | 51 | 359 | 0.0 | 1.0 | 0.00 | 0.28 | 0.00 | 47 | 1006.3 |